Retour au catalogue

STARLINK-35770

ActifCommunicationsVLEO
NORAD 66977·PAYLOAD·🇺🇸 United States

Lancé Dec 8, 2025 depuis Cape Canaveral Space Force Station

Loading…

Prochains Passages (prochaines 24 heures)

TLE

FraisSource: CelesTrak SupGP

Époque: Sep 15, 2026, 03:44 UTC

1 66977C 25288U   26258.15604167 -.00002168  00000+0 -78493-4 0  2584
2 66977  43.0044  33.6602 0001761 269.9341   7.9068 15.27588998    14

Suivez STARLINK-35770 en temps réel avec AllMySat

Download on the App Store